Terug naar catalogus

SL-12 DEB

ActiefHEO
NORAD 25804·DEBRIS·🇷🇺 Russia

Gelanceerd Sep 16, 1987 vanaf Baikonur Cosmodrome

Loading…

Volgende Passages (komende 24 uur)

TLE

VersSource: Space-Track

Epoch: Sep 13, 2026, 21:08 UTC

1 25804U 87079P   26256.88074457  .00026873  00000-0  69866-2 0  9997
2 25804  64.8803 139.4444 3581349  53.0506 334.7740  8.02931660636548

Volg SL-12 DEB in realtime met AllMySat

Download on the App Store